Simultaneous Nadir Overpasses (SNOs) Predictions

Prediction of SNOs near equator between AQUA and NPP Satellite Orbit:

Table of predicted SNOs near equator for the next 14.0 days since TLE Epoch: 9/28/2013
Index Date (AQUA) Time (AQUA) AQUA Lat,Lon Date (NPP) Time (NPP) NPP Lat,Lon Distance(km) Time Diff (sec)
1 09/28/2013 23:26:46 29.97,-152.56 09/28/2013 23:16:46 30.58,-152.97 79.05 600
2 09/29/2013 00:08:41 -2.98, 21.28 09/28/2013 23:59:35 -2.93, 21.07 23.71 546
3 09/29/2013 00:56:55 -1.66,-170.11 09/29/2013 00:49:05 -1.75,-170.58 53.43 470
4 09/29/2013 01:45:03 6.15, -1.50 09/29/2013 01:38:28 6.30, -2.23 82.50 395
5 10/01/2013 15:36:40 6.15, -31.17 10/01/2013 15:26:47 6.16, -31.21 4.76 593
6 10/01/2013 16:24:42 -1.30, 137.52 10/01/2013 16:16:04 -1.27, 137.22 33.56 518
7 10/01/2013 17:12:57 -3.28, -53.89 10/01/2013 17:05:34 -3.42, -54.44 63.11 443
8 10/01/2013 18:01:05 7.77, 114.73 10/01/2013 17:54:57 7.96, 113.92 91.86 368
9 10/04/2013 07:52:35 4.14, 85.14 10/04/2013 07:43:09 4.09, 85.02 13.99 566
10 10/04/2013 08:40:43 0.35,-106.25 10/04/2013 08:32:32 0.45,-106.62 43.39 491
11 10/04/2013 09:28:57 -4.99, 62.36 10/04/2013 09:22:02 -5.14, 61.72 72.75 415
12 10/06/2013 23:26:41 -29.97, 27.46 10/06/2013 23:16:41 -30.13, 27.18 32.35 600
13 10/07/2013 00:08:34 2.40,-158.61 10/06/2013 23:59:37 2.37,-158.82 23.89 537
14 10/07/2013 00:56:42 2.09, 10.01 10/07/2013 00:49:00 2.17, 9.53 53.35 462
15 10/07/2013 01:44:57 -6.67, 178.60 10/07/2013 01:38:30 -6.85, 177.88 82.54 387
16 10/09/2013 15:36:25 -5.74, 148.95 10/09/2013 15:26:41 -5.75, 148.90 5.23 584
17 10/09/2013 16:24:32 0.69, -42.35 10/09/2013 16:16:03 0.60, -42.65 34.03 509
18 10/09/2013 17:12:40 3.81, 126.26 10/09/2013 17:05:26 3.94, 125.70 63.39 434
19 10/09/2013 18:00:54 -8.44, -65.13 10/09/2013 17:54:56 -8.62, -65.95 92.17 358




NCC Satellite Simultaneous Nadir Overpasses (SNOs) Prediction Service
